Regional Weather Roundup
Issued by NWS Cleveland, OH

Home | Current Version | Previous Version | Text Only | Print | Product List | Glossary Off
Versions: 1 2 3 4 5 6 7 8 9 10 11 12 13 14 15 16 17 18 19 20 21 22 23 24 25 26 27 28 29 30 31 32 33 34 35 36 37 38 39 40 41 42 43 44 45 46 47 48 49 50

000
ASUS41 KCLE 190300
RWRCLE
OHIO REGIONAL WEATHER ROUNDUP
NATIONAL WEATHER SERVICE WILMINGTON, OH
1100 PM EDT FRI APR 18 2014

NOTE: "FAIR" INDICATES FEW OR NO CLOUDS BELOW 12,000 FEET WITH NO
SIGNIFICANT WEATHER AND/OR OBSTRUCTIONS TO VISIBILITY.

OHZ001>008-015>018-024>027-034-035-043-044-190400-
   NORTHWEST OHIO

CITY           SKY/WX    TMP DP  RH WIND       PRES   REMARKS
DEFIANCE       CLEAR     52  33  48 N10       30.30R
FINDLAY        CLEAR     52  42  69 NE8       30.26R
TOLEDO EXPRESS CLEAR     48  41  76 N6        30.29R
TOLEDO METCALF CLEAR     46  40  79 CALM      30.30R
LIMA           CLEAR     55  36  48 NW9       30.26R
$$

OHZ009>014-019>023-028>033-038-089-190400-
   NORTHEAST OHIO

CITY           SKY/WX    TMP DP  RH WIND       PRES   REMARKS
CLE-HOPKINS    PTCLDY    50  41  71 NE6       30.30R
CLE-LAKEFRONT  PTCLDY    49  42  77 E7        30.26S
CUY CO. ARPT   MOCLDY    48  34  57 E7        30.28S
LORAIN-ELYRIA  PTCLDY    49  41  74 E7        30.27S
ASHTABULA      MOCLDY    46  40  79 NE3       30.28S
AKRON-CANTON   MOCLDY    54  40  58 N6        30.25R
WOOSTER        NOT AVBL
MANSFIELD      CLEAR     53  42  66 N8        30.25R
YOUNGSTOWN     MOCLDY    47  39  74 NE10      30.26R
$$

OHZ042-051>053-060>062-070>072-077>081-190400-
  SOUTHWEST OHIO

CITY           SKY/WX    TMP DP  RH WIND       PRES   REMARKS
CINC-COVINGTON MOCLDY    57  39  51 CALM      30.23S
CINC-LUNKEN    PTCLDY    50  44  80 CALM      30.24R
HAMILTON       MOCLDY    58  41  53 N6        30.25R
DAYTON         NOT AVBL
WRIGHT-PAT AFB NOT AVBL
DAYTON GENERAL MOCLDY    58  39  49 N7        30.23S
WILMINGTON     PTCLDY    57  38  48 CALM      30.23S
$$

OHZ036-037-039>041-045>050-054>059-063>069-073>076-082>088-190400-
  CENTRAL AND SOUTHEAST OHIO

CITY           SKY/WX    TMP DP  RH WIND       PRES   REMARKS
COLUMBUS       PTCLDY    57  38  48 CALM      30.23S
OSU AIRPORT    MOCLDY    52  39  61 CALM      30.23S
BOLTON FIELD   NOT AVBL
RICKENBACK AFB NOT AVBL
NEWARK         PTCLDY    49  42  77 CALM      30.22S
MARION         PTCLDY    50  42  74 N7        30.24R
LANCASTER      PTCLDY    47  42  83 CALM      30.23S
ZANESVILLE     MOCLDY    53  37  54 CALM      30.23R
NEW PHILLY     PTCLDY    49  39  68 CALM      30.24R
$$



USA.gov is the U.S. government's official web portal to all federal, state and local government web resources and services.